Weather History for Prague, Czech Republic

Change the Weather History Date:

Sunday, October 16, 2011

  Actual Average Record
Temperature  
Mean Temperature 41 °F -  
Max Temperature 51 °F 49 °F 69 °F (2000)
Min Temperature 31 °F 35 °F 32 °F (1999)
Degree Days  
Heating Degree Days 24    
Moisture  
Dew Point 32 °F    
Average Humidity 73    
Maximum Humidity 100    
Minimum Humidity 36    
Precipitation  
Precipitation 0.00 in 0.04 in - ()
Sea Level Pressure  
Sea Level Pressure 30.42 in    
Wind  
Wind Speed 4 mph ()    
Max Wind Speed 9 mph    
Max Gust Speed -    
Visibility 9.1 miles    
Events Fog    
Averages and records for this station are not official NWS values.
T = Trace of Precipitation, MM = Missing Value Source: Averaged Metar Reports

Daily Weather History Graph

Daily Weather History Graph

Search for Another Location

Airport:

Trip Planner

Search our weather history database for the weather conditions in past years. The results will help you decide how hot, cold, wet, or windy it might be!

Date:

Astronomy

Oct. 16, 2011 Rise Set
Actual Time 7:25 AM CEST 6:10 PM CEST
Civil Twilight 6:53 AM CEST 6:43 PM CEST
Nautical Twilight 6:15 AM CEST 7:20 PM CEST
Astronomical Twilight 5:37 AM CEST 7:58 PM CEST
Moon 8:15 PM CEST (10/16) 11:54 AM CEST (10/16)
Length of Visible Light 11h 50m
Length of Day
10h 44m
Waning Gibbous, 84% of the Moon is Illuminated
Oct 16
Waning Gibbous
Oct 20
Last Quarter
Oct 26
New
Nov 2
First Quarter
Nov 10
Full

Hourly Weather History & Observations

Time (CEST) Temp. Windchill Dew Point Humidity Pressure Visibility Wind Dir Wind Speed Gust Speed Precip Events Conditions
12:00 AM 37.4 °F - 33.8 °F 87% 30.45 in - East 2.3 mph - N/A   Clear
12:30 AM 35.6 °F 32.8 °F 32.0 °F 87% 30.45 in - East 3.5 mph - N/A   Clear
1:00 AM 35.6 °F 32.8 °F 32.0 °F 87% 30.45 in - East 3.5 mph - N/A   Clear
1:30 AM 33.8 °F - 32.0 °F 93% 30.45 in - East 2.3 mph - N/A   Clear
2:00 AM 34 °F - 31 °F 84% 30.53 in 9 mi ESE 8.9 mph - -   Clear
2:00 AM 33.8 °F - 30.2 °F 87% 30.45 in - Variable 1.2 mph - N/A   Clear
2:30 AM 35.6 °F - 30.2 °F 81% 30.45 in - Variable 2.3 mph - N/A   Clear
3:00 AM 33.8 °F 28.6 °F 30.2 °F 87% 30.45 in - East 5.8 mph - N/A   Clear
3:30 AM 32.0 °F 27.5 °F 30.2 °F 93% 30.45 in - East 4.6 mph - N/A   Clear
4:00 AM 33.8 °F - 32.0 °F 93% 30.45 in - Variable 1.2 mph - N/A   Clear
4:30 AM 33.8 °F 30.8 °F 32.0 °F 93% 30.45 in - East 3.5 mph - N/A   Clear
5:00 AM 33.8 °F - 32.0 °F 93% 30.45 in - Variable 1.2 mph - N/A   Clear
5:30 AM 33.8 °F - 32.0 °F 93% 30.45 in - ESE 2.3 mph - N/A   Clear
6:00 AM 33.8 °F 30.8 °F 32.0 °F 93% 30.45 in - SE 3.5 mph - N/A   Clear
6:30 AM 33.8 °F 30.8 °F 32.0 °F 93% 30.45 in - East 3.5 mph - N/A   Clear
7:00 AM 32.0 °F 28.7 °F 32.0 °F 100% 30.45 in 5.0 mi ESE 3.5 mph - N/A   Unknown
7:30 AM 32.0 °F 27.5 °F 30.2 °F 93% 30.45 in 5.0 mi East 4.6 mph - N/A Fog Fog
8:00 AM 33 °F - 31 °F 92% 30.53 in 5 mi East 4.5 mph - -   Mist
8:00 AM 32.0 °F - 32.0 °F 100% 30.45 in 5.0 mi SSE 1.2 mph - N/A   Unknown
8:30 AM 33.8 °F 29.6 °F 32.0 °F 93% 30.45 in 5.6 mi East 4.6 mph - N/A   Unknown
9:00 AM 37.4 °F - 32.0 °F 81% 30.45 in - ESE 1.2 mph - N/A   Clear
9:30 AM 39.2 °F 37.0 °F 33.8 °F 81% 30.45 in - East 3.5 mph - N/A   Clear
10:00 AM 41.0 °F 37.1 °F 33.8 °F 76% 30.45 in - ESE 5.8 mph - N/A   Clear
10:30 AM 42.8 °F 40.1 °F 33.8 °F 70% 30.45 in - ESE 4.6 mph - N/A   Clear
11:00 AM 42.8 °F 38.6 °F 33.8 °F 70% 30.45 in - ESE 6.9 mph - N/A   Clear
11:30 AM 46.4 °F 42.4 °F 33.8 °F 62% 30.45 in - SE 8.1 mph - N/A   Clear
12:00 PM 46.4 °F 42.4 °F 33.8 °F 62% 30.45 in - ESE 8.1 mph - N/A   Clear
12:30 PM 48.2 °F - 33.8 °F 58% 30.45 in - SE 8.1 mph - N/A   Clear
1:00 PM 48.2 °F - 33.8 °F 58% 30.45 in - SE 9.2 mph - N/A   Clear
1:30 PM 50.0 °F - 32.0 °F 50% 30.42 in - SE 9.2 mph - N/A   Clear
2:00 PM 49 °F - 31 °F 36% 30.45 in 19 mi ESE 8.9 mph - -   Clear
2:00 PM 50.0 °F - 30.2 °F 47% 30.42 in - ESE 8.1 mph - N/A   Clear
2:30 PM 50.0 °F - 30.2 °F 47% 30.42 in - SE 8.1 mph - N/A   Clear
3:00 PM 50.0 °F - 30.2 °F 47% 30.39 in - ESE 9.2 mph - N/A   Clear
3:30 PM 50.0 °F - 30.2 °F 47% 30.39 in - SE 8.1 mph - N/A   Clear
4:00 PM 51.8 °F - 30.2 °F 44% 30.39 in - SE 6.9 mph - N/A   Clear
4:30 PM 50.0 °F - 30.2 °F 47% 30.39 in - ESE 8.1 mph - N/A   Clear
5:00 PM 50.0 °F - 28.4 °F 43% 30.36 in - ESE 6.9 mph - N/A   Clear
5:30 PM 48.2 °F - 30.2 °F 50% 30.36 in - ESE 6.9 mph - N/A   Clear
6:00 PM 44.6 °F 40.7 °F 30.2 °F 57% 30.36 in - ESE 6.9 mph - N/A   Clear
6:30 PM 42.8 °F 39.3 °F 30.2 °F 61% 30.36 in - ESE 5.8 mph - N/A   Clear
7:00 PM 41.0 °F 37.1 °F 30.2 °F 65% 30.36 in - SE 5.8 mph - N/A   Clear
7:30 PM 42.8 °F 39.3 °F 32.0 °F 66% 30.36 in - SSE 5.8 mph - N/A   Clear
8:00 PM 41 °F - 32 °F 60% 30.42 in 19 mi South 4.5 mph - -   Clear
8:00 PM 41.0 °F 36.4 °F 32.0 °F 70% 30.36 in - South 6.9 mph - N/A   Clear
8:30 PM 39.2 °F 34.2 °F 32.0 °F 75% 30.36 in - South 6.9 mph - N/A   Clear
9:00 PM 41.0 °F 38.0 °F 32.0 °F 70% 30.36 in - SSE 4.6 mph - N/A   Clear
9:30 PM 39.2 °F 35.9 °F 32.0 °F 75% 30.36 in - SSE 4.6 mph - N/A   Clear
10:00 PM 37.4 °F 32.8 °F 32.0 °F 81% 30.36 in - SSE 5.8 mph - N/A   Clear
10:30 PM 39.2 °F 34.2 °F 32.0 °F 75% 30.36 in - SSE 6.9 mph - N/A   Clear
11:00 PM 37.4 °F 32.1 °F 32.0 °F 81% 30.36 in - SSE 6.9 mph - N/A   Clear
11:30 PM 37.4 °F 32.1 °F 32.0 °F 81% 30.36 in - SSE 6.9 mph - N/A   Clear